Location: Eldred Sherwood Park Lake Dam
(42.9416°N, 93.5655°W)
Time: 08:38:22
(UTC+00:00)

Vanguard 2 Rocket - Pass Details

Date: 08 November 2024
Orbit: 554 x 3296 km, 32.9° (Epoch: 06 December)

Event Time Altitude Azimuth Distance (km) Brightness Sun altitude
Rises 12:11:31 0° 193° (SSW) 5,890 11.1 -9.0°
Reaches altitude 10° 12:16:19 10° 180° (S) 5,290 11.0 -8.1°
Maximum altitude 12:28:00 23° 135° (SE) 4,923 11.5 -6.1°
Drops below altitude 10° 12:41:30 10° 92° (E) 6,247 12.7 -3.7°
Sets 12:47:48 0° 81° (E) 7,186 12.7 -2.6°
